Weather History for Dayton Wright, OH

Change the Weather History Date:

Monday, August 12, 2013

  Actual Average (KFFO) Record (KFFO)
Temperature  
Mean Temperature 73 °F -  
Max Temperature 84 °F 81 °F 96 °F (2005)
Min Temperature 64 °F 60 °F 48 °F (2004)
Cooling Degree Days 8    
Growing Degree Days 23 (Base 50)    
Moisture  
Dew Point 65 °F    
Average Humidity 74    
Maximum Humidity 93    
Minimum Humidity 44    
Precipitation  
Precipitation 0.11 in - - ()
Sea Level Pressure  
Sea Level Pressure 29.97 in    
Wind  
Wind Speed 3 mph (SSW)    
Max Wind Speed 12 mph    
Max Gust Speed -    
Visibility 9 miles    
Events Rain , Thunderstorm    
Averages and records for this station are not official NWS values.
T = Trace of Precipitation, MM = Missing Value Source: NWS Daily Summary

Daily Weather History Graph

Daily Weather History Graph

Search for Another Location

Airport:

Trip Planner

Search our weather history database for the weather conditions in past years. The results will help you decide how hot, cold, wet, or windy it might be!

Date:

Astronomy

Aug. 12, 2013 Rise Set
Actual Time 6:46 AM EDT 8:36 PM EDT
Civil Twilight 6:17 AM EDT 9:05 PM EDT
Nautical Twilight 5:42 AM EDT 9:40 PM EDT
Astronomical Twilight 5:04 AM EDT 10:18 PM EDT
Moon 12:35 PM EDT (8/12) 11:30 PM EDT (8/12)
Length of Visible Light 14h 47m
Length of Day
13h 49m
Waxing Crescent, 31% of the Moon is Illuminated
Aug 12
Waxing Crescent
Aug 14
First Quarter
Aug 20
Full
Aug 28
Last Quarter
Sep 5
New

Hourly Weather History & Observations

Time (EDT) Temp. Heat Index Dew Point Humidity Pressure Visibility Wind Dir Wind Speed Gust Speed Precip Events Conditions
12:53 AM 69.1 °F - 63.0 °F 81% 30.07 in 10.0 mi Calm Calm - N/A   Clear
1:53 AM 69.1 °F - 63.0 °F 81% 30.07 in 10.0 mi Calm Calm - N/A   Clear
2:53 AM 66.9 °F - 63.0 °F 87% 30.07 in 10.0 mi Calm Calm - N/A   Clear
3:53 AM 66.0 °F - 63.0 °F 90% 30.06 in 10.0 mi Calm Calm - N/A   Clear
4:53 AM 64.9 °F - 62.1 °F 90% 30.05 in 10.0 mi Calm Calm - N/A   Clear
5:53 AM 66.0 °F - 63.0 °F 90% 30.06 in 10.0 mi Calm Calm - N/A   Clear
6:53 AM 66.0 °F - 63.0 °F 90% 30.05 in 9.0 mi Calm Calm - N/A   Clear
7:53 AM 66.9 °F - 64.0 °F 90% 30.05 in 8.0 mi Calm Calm - N/A   Clear
8:53 AM 72.0 °F - 63.0 °F 73% 30.05 in 10.0 mi South 5.8 mph - N/A   Clear
9:53 AM 75.0 °F - 66.0 °F 73% 30.04 in 10.0 mi SSE 4.6 mph - N/A   Clear
10:53 AM 77.0 °F - 66.0 °F 69% 30.03 in 10.0 mi SSW 6.9 mph - N/A   Clear
11:53 AM 79.0 °F - 64.0 °F 60% 30.02 in 10.0 mi South 6.9 mph - N/A   Clear
12:53 PM 80.1 °F 81.7 °F 64.0 °F 58% 30.01 in 10.0 mi WSW 8.1 mph - N/A   Partly Cloudy
1:53 PM 81.0 °F 82.5 °F 64.0 °F 56% 29.99 in 10.0 mi South 11.5 mph - N/A   Scattered Clouds
2:53 PM 82.0 °F 83.4 °F 64.0 °F 54% 29.97 in 10.0 mi South 9.2 mph - N/A   Clear
3:53 PM 82.9 °F 82.8 °F 59.0 °F 44% 29.94 in 10.0 mi SW 5.8 mph - N/A   Scattered Clouds
4:53 PM 82.0 °F 82.7 °F 61.0 °F 49% 29.92 in 10.0 mi SSW 5.8 mph - N/A   Mostly Cloudy
5:53 PM 82.0 °F 83.1 °F 63.0 °F 52% 29.91 in 10.0 mi SW 5.8 mph - N/A   Mostly Cloudy
6:53 PM 81.0 °F 82.5 °F 64.0 °F 56% 29.90 in 10.0 mi SW 5.8 mph - N/A   Mostly Cloudy
7:50 PM 78.8 °F - 66.2 °F 65% 29.92 in 10.0 mi SW 4.6 mph - N/A Thunderstorm Mostly Cloudy
7:53 PM 79.0 °F - 66.9 °F 66% 29.90 in 10.0 mi SW 4.6 mph - N/A Thunderstorm Mostly Cloudy
8:04 PM 77.0 °F - 68.0 °F 74% 29.91 in 2.5 mi WSW 6.9 mph - 0.05 in Rain Heavy Rain
8:19 PM 75.2 °F - 69.8 °F 83% 29.91 in 7.0 mi WSW 4.6 mph - 0.07 in Rain Light Rain
8:53 PM 73.9 °F - 70.0 °F 87% 29.89 in 8.0 mi Calm Calm - 0.07 in   Mostly Cloudy
9:28 PM 73.4 °F - 66.2 °F 78% 29.90 in 10.0 mi South 8.1 mph - N/A   Overcast
9:53 PM 71.1 °F - 66.9 °F 87% 29.88 in 10.0 mi SSE 5.8 mph - 0.04 in   Overcast
10:34 PM 71.6 °F - 68.0 °F 88% 29.91 in 9.0 mi South 3.5 mph - N/A   Overcast
10:53 PM 71.1 °F - 68.0 °F 90% 29.89 in 8.0 mi South 3.5 mph - N/A   Mostly Cloudy
11:53 PM 71.1 °F - 69.1 °F 93% 29.88 in 6.0 mi SSW 3.5 mph - N/A   Clear